TimeCDT,TemperatureF,Dew PointF,Humidity,Sea Level PressureIn,VisibilityMPH,Wind Direction,Wind SpeedMPH,Gust SpeedMPH,PrecipitationIn,Events,Conditions,WindDirDegrees,DateUTC
12:15 AM,80.8,76.3,86,30.07,10.0,ESE,4.6,-,N/A,,Scattered Clouds,110,2013-08-22 05:15:00
12:35 AM,80.6,76.3,87,30.07,10.0,ENE,3.5,-,N/A,,Clear,70,2013-08-22 05:35:00
12:55 AM,79.7,76.5,90,30.06,10.0,ENE,4.6,-,N/A,,Clear,70,2013-08-22 05:55:00
1:15 AM,79.2,76.3,91,30.06,10.0,East,5.8,-,N/A,,Clear,80,2013-08-22 06:15:00
1:35 AM,79.2,76.3,91,30.06,10.0,East,4.6,-,N/A,,Clear,80,2013-08-22 06:35:00
1:55 AM,78.8,76.1,91,30.06,10.0,Calm,Calm,-,N/A,,Scattered Clouds,0,2013-08-22 06:55:00
2:15 AM,78.6,76.1,92,30.05,10.0,ENE,5.8,-,N/A,,Scattered Clouds,60,2013-08-22 07:15:00
2:35 AM,77.4,75.4,94,30.05,10.0,NE,3.5,-,N/A,,Scattered Clouds,50,2013-08-22 07:35:00
2:55 AM,76.8,75.2,95,30.05,10.0,NE,5.8,-,N/A,,Scattered Clouds,40,2013-08-22 07:55:00
3:15 AM,76.6,74.8,94,30.05,10.0,NE,4.6,-,N/A,,Clear,40,2013-08-22 08:15:00
3:35 AM,76.3,74.7,95,30.04,10.0,Calm,Calm,-,N/A,,Clear,0,2013-08-22 08:35:00
3:55 AM,76.1,74.5,95,30.04,10.0,Calm,Calm,-,N/A,,Clear,0,2013-08-22 08:55:00
4:15 AM,75.6,74.3,96,30.04,10.0,NNE,3.5,-,N/A,,Clear,20,2013-08-22 09:15:00
4:35 AM,75.2,73.8,95,30.05,10.0,Calm,Calm,-,N/A,,Clear,0,2013-08-22 09:35:00
4:55 AM,75.2,73.8,95,30.05,10.0,Calm,Calm,-,N/A,,Clear,0,2013-08-22 09:55:00
5:15 AM,74.7,73.4,96,30.05,10.0,Calm,Calm,-,N/A,,Clear,0,2013-08-22 10:15:00
5:35 AM,74.5,73.4,96,30.05,7.0,NNE,3.5,-,N/A,,Clear,20,2013-08-22 10:35:00
5:55 AM,74.7,73.4,96,30.05,10.0,Calm,Calm,-,N/A,,Clear,0,2013-08-22 10:55:00
6:15 AM,74.3,73.0,96,30.05,7.0,Calm,Calm,-,N/A,,Clear,0,2013-08-22 11:15:00
6:35 AM,74.3,73.4,97,30.06,7.0,Calm,Calm,-,N/A,,Clear,0,2013-08-22 11:35:00
6:55 AM,74.1,73.0,96,30.06,5.0,Calm,Calm,-,N/A,,Scattered Clouds,0,2013-08-22 11:55:00
7:15 AM,74.5,73.4,96,30.07,7.0,NNE,3.5,-,N/A,,Scattered Clouds,20,2013-08-22 12:15:00
7:35 AM,75.2,74.3,97,30.08,10.0,NNE,4.6,-,N/A,,Clear,20,2013-08-22 12:35:00
7:55 AM,76.3,75.2,96,30.08,10.0,NNE,3.5,-,N/A,,Clear,20,2013-08-22 12:55:00
8:15 AM,77.7,75.6,93,30.09,10.0,NE,5.8,-,N/A,,Clear,40,2013-08-22 13:15:00
8:35 AM,79.0,76.1,91,30.09,10.0,NE,4.6,-,N/A,,Clear,40,2013-08-22 13:35:00
8:55 AM,80.2,76.3,88,30.09,10.0,NE,6.9,-,N/A,,Clear,40,2013-08-22 13:55:00
9:15 AM,81.9,76.3,83,30.09,10.0,ENE,5.8,-,N/A,,Clear,60,2013-08-22 14:15:00
9:35 AM,83.1,76.3,80,30.09,10.0,ENE,6.9,-,N/A,,Clear,60,2013-08-22 14:35:00
9:55 AM,83.8,75.9,77,30.09,10.0,NE,6.9,-,N/A,,Clear,40,2013-08-22 14:55:00
10:15 AM,84.7,75.6,74,30.09,10.0,NE,5.8,-,N/A,,Clear,50,2013-08-22 15:15:00
10:35 AM,84.6,75.0,73,30.09,10.0,NNE,8.1,-,N/A,,Scattered Clouds,30,2013-08-22 15:35:00
10:55 AM,85.6,74.8,70,30.09,10.0,ENE,4.6,-,N/A,,Mostly Cloudy,60,2013-08-22 15:55:00
11:15 AM,87.6,74.5,65,30.08,10.0,North,3.5,-,N/A,,Scattered Clouds,10,2013-08-22 16:15:00
11:35 AM,87.1,74.1,65,30.08,10.0,Calm,Calm,-,N/A,,Clear,0,2013-08-22 16:35:00
11:55 AM,86.9,72.9,63,30.08,10.0,Calm,Calm,-,N/A,,Clear,0,2013-08-22 16:55:00
12:15 PM,89.2,71.8,56,30.07,10.0,NNE,4.6,-,N/A,,Clear,30,2013-08-22 17:15:00
12:35 PM,90.0,70.5,53,30.06,10.0,Calm,Calm,-,N/A,,Clear,0,2013-08-22 17:35:00
12:55 PM,90.1,70.9,53,30.06,10.0,East,5.8,-,N/A,,Clear,90,2013-08-22 17:55:00
1:15 PM,91.2,72.0,53,30.05,10.0,ESE,4.6,-,N/A,,Clear,110,2013-08-22 18:15:00
1:35 PM,92.3,71.8,51,30.04,10.0,NE,4.6,-,N/A,,Clear,50,2013-08-22 18:35:00
1:55 PM,92.3,71.1,50,30.04,10.0,East,5.8,-,N/A,,Scattered Clouds,80,2013-08-22 18:55:00
2:15 PM,90.0,72.1,56,30.03,10.0,East,6.9,-,N/A,,Mostly Cloudy,80,2013-08-22 19:15:00
2:35 PM,89.6,72.5,57,30.02,10.0,East,10.4,-,N/A,,Scattered Clouds,90,2013-08-22 19:35:00
2:55 PM,87.4,71.4,59,30.02,10.0,ESE,5.8,-,N/A,,Scattered Clouds,120,2013-08-22 19:55:00
3:15 PM,87.4,69.8,56,30.01,10.0,East,6.9,-,N/A,,Clear,90,2013-08-22 20:15:00
3:35 PM,89.1,68.7,51,30.00,10.0,East,4.6,-,N/A,,Clear,90,2013-08-22 20:35:00
3:55 PM,90.5,70.2,51,29.99,10.0,East,4.6,-,N/A,,Clear,90,2013-08-22 20:55:00
4:15 PM,92.3,70.5,49,29.98,10.0,ESE,5.8,-,N/A,,Clear,110,2013-08-22 21:15:00
4:35 PM,91.6,68.2,46,29.98,10.0,ENE,5.8,-,N/A,,Clear,60,2013-08-22 21:35:00
4:55 PM,92.1,68.9,46,29.97,10.0,NNE,3.5,-,N/A,,Clear,30,2013-08-22 21:55:00
5:15 PM,90.5,69.6,50,29.98,10.0,East,4.6,-,N/A,,Clear,90,2013-08-22 22:15:00
5:35 PM,90.0,69.6,51,29.97,10.0,ENE,3.5,-,N/A,,Clear,60,2013-08-22 22:35:00
5:55 PM,89.4,70.9,54,29.96,10.0,Calm,Calm,-,N/A,,Scattered Clouds,0,2013-08-22 22:55:00
6:15 PM,87.8,72.7,61,29.97,10.0,SSE,3.5,-,N/A,,Mostly Cloudy,150,2013-08-22 23:15:00
6:35 PM,87.1,74.3,66,29.97,10.0,SSE,5.8,-,N/A,,Mostly Cloudy,150,2013-08-22 23:35:00
6:55 PM,85.8,74.8,70,29.97,10.0,SE,6.9,-,N/A,,Scattered Clouds,140,2013-08-22 23:55:00
7:15 PM,85.1,74.8,71,29.97,10.0,SSE,4.6,-,N/A,,Scattered Clouds,150,2013-08-23 00:15:00
7:35 PM,84.4,75.2,74,29.97,10.0,SSE,4.6,-,N/A,,Clear,160,2013-08-23 00:35:00
7:55 PM,83.7,75.6,76,29.97,10.0,SSE,4.6,-,N/A,,Clear,150,2013-08-23 00:55:00
8:15 PM,82.9,75.6,78,29.97,10.0,SSE,4.6,-,N/A,,Clear,160,2013-08-23 01:15:00
8:35 PM,82.6,75.4,79,29.98,10.0,SSE,3.5,-,N/A,,Clear,150,2013-08-23 01:35:00
8:55 PM,81.9,75.4,81,29.98,10.0,Calm,Calm,-,N/A,,Clear,0,2013-08-23 01:55:00
9:15 PM,81.7,75.6,82,29.99,10.0,Calm,Calm,-,N/A,,Clear,0,2013-08-23 02:15:00
9:35 PM,81.3,75.7,83,29.99,10.0,Calm,Calm,-,N/A,,Clear,0,2013-08-23 02:35:00
9:55 PM,79.7,75.4,87,30.00,10.0,Calm,Calm,-,N/A,,Clear,0,2013-08-23 02:55:00
10:15 PM,78.1,75.2,91,30.01,10.0,Calm,Calm,-,N/A,,Clear,0,2013-08-23 03:15:00
10:35 PM,77.5,75.2,92,30.01,10.0,Calm,Calm,-,N/A,,Clear,0,2013-08-23 03:35:00
10:55 PM,76.6,74.7,94,30.02,10.0,Calm,Calm,-,N/A,,Clear,0,2013-08-23 03:55:00
11:15 PM,77.0,74.8,93,30.02,10.0,Calm,Calm,-,N/A,,Clear,0,2013-08-23 04:15:00
11:35 PM,76.6,75.2,95,30.02,10.0,Calm,Calm,-,N/A,,Clear,0,2013-08-23 04:35:00
11:55 PM,76.3,74.7,95,30.02,10.0,Calm,Calm,-,N/A,,Clear,0,2013-08-23 04:55:00